Olympia, WA

8:24 PM PST on December 04, 2016 (GMT -0800)
Olympia

Weather History for KOLM - December, 2013

Change the Weather History Date:

Monday, December 2, 2013

  Actual Average Record
Temperature  
Mean Temperature 38 °F 40 °F  
Max Temperature 43 °F 46 °F 57 °F (1958)
Min Temperature 32 °F 33 °F 19 °F (2014)
Degree Days  
Heating Degree Days 27 25  
Month to date heating degree days 44 50  
Since 1 July heating degree days 1440 1495  
Cooling Degree Days 0 0  
Month to date cooling degree days 0 0  
Year to date cooling degree days 147 106  
Moisture  
Dew Point 33 °F    
Average Humidity 85    
Maximum Humidity 100    
Minimum Humidity 70    
Precipitation  
Precipitation 0.06 in 0.29 in 2.12 in (2007)
Month to date precipitation 0.94 0.57  
Year to date precipitation 40.38 43.11  
Sea Level Pressure  
Sea Level Pressure 29.97 in    
Wind  
Wind Speed 7 mph (SW)    
Max Wind Speed 18 mph    
Max Gust Speed 23 mph    
Visibility 6 miles    
Events Fog , Rain    
T = Trace of Precipitation, MM = Missing Value Source: NWS Daily Summary

Daily Weather History Graph

Daily Weather History Graph

Search for Another Location

Airport or City:

Trip Planner

Search our weather history database for the weather conditions in past years. The results will help you decide how hot, cold, wet, or windy it might be!

Date:

Astronomy

Dec. 02, 2013 Rise Set
Actual Time 7:38 AM PST 4:24 PM PST
Civil Twilight 7:03 AM PST 4:58 PM PST
Nautical Twilight 6:25 AM PST 5:36 PM PST
Astronomical Twilight 5:48 AM PST 6:13 PM PST
Moon 7:06 AM PST (12/2) 4:34 PM PST (12/2)
Length of Visible Light 9h 55m
Length of Day
8h 45m
Waning Crescent, 0% of the Moon is Illuminated
Dec 2
Waning Crescent
Dec 2
New
Dec 9
First Quarter
Dec 17
Full
Dec 25
Last Quarter

Hourly Weather History & Observations

Time (PST) Temp. Windchill Dew Point Humidity Pressure Visibility Wind Dir Wind Speed Gust Speed Precip Events Conditions
12:26 AM 43.0 °F 38.8 °F 36.0 °F 76% 29.90 in 10.0 mi West 6.9 mph - 0.00 in   Overcast
12:54 AM 42.1 °F 37.1 °F 36.0 °F 79% 29.91 in 7.0 mi WSW 8.1 mph - 0.00 in Rain Light Rain
1:33 AM 39.9 °F 35.1 °F 36.0 °F 86% 29.90 in 10.0 mi SW 6.9 mph - 0.02 in   Overcast
1:54 AM 39.9 °F 35.8 °F 35.1 °F 83% 29.91 in 10.0 mi SSW 5.8 mph - 0.02 in   Mostly Cloudy
2:54 AM 39.0 °F 36.8 °F 34.0 °F 82% 29.91 in 10.0 mi West 3.5 mph - 0.00 in   Overcast
3:54 AM 37.9 °F 32.7 °F 35.1 °F 89% 29.90 in 10.0 mi SSW 6.9 mph - 0.00 in Rain Light Rain
4:54 AM 37.0 °F 31.0 °F 34.0 °F 89% 29.90 in 10.0 mi SSW 8.1 mph - 0.00 in   Partly Cloudy
5:27 AM 37.9 °F 33.5 °F 34.0 °F 86% 29.90 in 7.0 mi WSW 5.8 mph - 0.00 in Rain Light Rain
5:54 AM 37.0 °F 31.6 °F 34.0 °F 89% 29.90 in 7.0 mi SSW 6.9 mph - 0.02 in Rain Light Rain
6:15 AM 36.0 °F 29.6 °F 34.0 °F 93% 29.89 in 10.0 mi SSW 8.1 mph - 0.00 in Rain Light Rain
6:40 AM 36.0 °F 28.5 °F 34.0 °F 93% 29.90 in 6.0 mi SW 10.4 mph - 0.02 in Rain Light Rain
6:54 AM 36.0 °F 30.3 °F 34.0 °F 93% 29.91 in 10.0 mi SSW 6.9 mph - 0.02 in Rain Light Rain
7:15 AM 35.1 °F 30.1 °F 33.1 °F 92% 29.90 in 10.0 mi SSW 5.8 mph - 0.00 in   Mostly Cloudy
7:54 AM 35.1 °F 27.4 °F 33.1 °F 92% 29.90 in 10.0 mi SSW 10.4 mph - 0.00 in   Partly Cloudy
8:54 AM 37.0 °F 31.6 °F 34.0 °F 89% 29.91 in 10.0 mi SW 6.9 mph - N/A   Scattered Clouds
9:54 AM 37.9 °F 30.5 °F 32.0 °F 79% 29.91 in 10.0 mi SW 11.5 mph - N/A   Scattered Clouds
10:54 AM 37.9 °F 31.5 °F 33.1 °F 83% 29.94 in 10.0 mi WSW 9.2 mph - N/A   Scattered Clouds
11:54 AM 42.1 °F 36.6 °F 33.1 °F 70% 29.93 in 10.0 mi WSW 9.2 mph - N/A   Scattered Clouds
12:54 PM 41.0 °F 34.3 °F 32.0 °F 70% 29.94 in 10.0 mi WSW 11.5 mph - N/A   Scattered Clouds
1:54 PM 41.0 °F 35.2 °F 32.0 °F 70% 29.95 in 10.0 mi WSW 9.2 mph - N/A   Mostly Cloudy
2:54 PM 39.0 °F 33.4 °F 32.0 °F 76% 29.96 in 10.0 mi WSW 8.1 mph - N/A   Mostly Cloudy
3:54 PM 37.0 °F 29.3 °F 33.1 °F 86% 29.97 in 10.0 mi SW 11.5 mph - N/A   Scattered Clouds
4:54 PM 35.1 °F 30.1 °F 33.1 °F 92% 29.98 in 10.0 mi SSW 5.8 mph - N/A   Scattered Clouds
5:28 PM 33.1 °F 28.7 °F 30.9 °F 92% 29.98 in 10.0 mi South 4.6 mph - N/A   Partly Cloudy
5:41 PM 33.1 °F 27.7 °F 30.9 °F 92% 29.98 in 10.0 mi South 5.8 mph - N/A   Mostly Cloudy
5:54 PM 33.1 °F 26.1 °F 32.0 °F 96% 29.99 in 10.0 mi SSW 8.1 mph - N/A   Mostly Cloudy
6:54 PM 34.0 °F 31.0 °F 32.0 °F 92% 30.00 in 10.0 mi SSW 3.5 mph - N/A   Overcast
7:49 PM 33.8 °F 29.6 °F 33.8 °F 100% 30.01 in 4.0 mi South 4.6 mph - N/A   Overcast
7:54 PM 34.0 °F 31.0 °F 33.1 °F 96% 30.02 in 2.5 mi South 3.5 mph - N/A   Overcast
8:08 PM 33.1 °F - 33.1 °F 100% 30.02 in 1.2 mi Calm Calm - N/A   Overcast
8:30 PM 33.1 °F - 33.1 °F 100% 30.02 in 1.5 mi Calm Calm - N/A   Overcast
8:38 PM 33.1 °F 30.0 °F 33.1 °F 100% 30.03 in 1.0 mi SSW 3.5 mph - N/A   Overcast
8:54 PM 33.1 °F - 33.1 °F 100% 30.04 in 0.8 mi Calm Calm - N/A   Mist
9:17 PM 34.0 °F - 33.1 °F 96% 30.04 in 1.0 mi Calm Calm - N/A   Mist
9:26 PM 33.1 °F - 33.1 °F 100% 30.04 in 2.0 mi Calm Calm - N/A   Overcast
9:31 PM 33.1 °F - 33.1 °F 100% 30.04 in 1.8 mi Calm Calm - N/A   Overcast
9:46 PM 33.1 °F 30.0 °F 33.1 °F 100% 30.05 in 3.0 mi WSW 3.5 mph - N/A   Overcast
9:54 PM 34.0 °F 29.8 °F 33.1 °F 96% 30.05 in 4.0 mi SW 4.6 mph - N/A   Overcast
10:24 PM 33.1 °F 30.0 °F 33.1 °F 100% 30.05 in 1.8 mi SW 3.5 mph - N/A   Overcast
10:35 PM 33.1 °F 30.0 °F 33.1 °F 100% 30.05 in 1.0 mi WSW 3.5 mph - N/A   Overcast
10:46 PM 33.1 °F 28.7 °F 33.1 °F 100% 30.04 in 0.8 mi WSW 4.6 mph - N/A   Mist
10:54 PM 33.1 °F 30.0 °F 33.1 °F 100% 30.05 in 0.5 mi SSW 3.5 mph - N/A Fog Fog
11:28 PM 33.1 °F - 33.1 °F 100% 30.06 in 0.2 mi Calm Calm - N/A Fog Fog
11:39 PM 33.1 °F - 33.1 °F 100% 30.06 in 0.5 mi Calm Calm - N/A Fog Fog
11:54 PM 33.1 °F 30.0 °F 32.0 °F 96% 30.07 in 0.5 mi WSW 3.5 mph - N/A Fog Fog